Location: Maddington
(51.2000°N, 1.9167°W)
Time: 11:45:09
(UTC+00:00)

NOSS 2-2 (E) - Pass Details

Date: 22 January 2021
Orbit: 465 x 1741 km, 63.3° (Epoch: 16 January)

Event Time Altitude Azimuth Distance (km) Brightness Sun altitude
Rises 18:36:06 0° 311° (NW) 2,845 7.6 -17.6°
Reaches altitude 10° 18:38:24 10° 325° (NW) 2,078 6.6 -18.0°
Maximum altitude 18:42:27 27° 24° (NNE) 1,465 5.2 -18.6°
Enters shadow 18:43:31 26° 43° (NE) 1,582 5.2 -18.8°
